Location: Rancho Santa Fe Post Office
(33.0184°N, 117.2026°W)
Time: 01:43:14
(UTC+00:00)

Thor Agena Rocket - Pass Details

Date: 10 September 2024
Orbit: 757 x 804 km, 99.1° (Epoch: 06 October)

Event Time Altitude Azimuth Distance (km) Brightness Sun altitude
Rises 12:32:42 0° 3° (N) 3,253 7.0 -12.6°
Reaches altitude 10° 12:35:07 10° 356° (N) 2,329 6.1 -12.1°
Maximum altitude 12:39:52 39° 289° (WNW) 1,155 4.0 -11.1°
Drops below altitude 10° 12:44:39 10° 221° (SW) 2,346 5.5 -10.1°
Enters shadow 12:46:18 - 216° (SW) 2,971 6.1 -9.8°
